Regional Weather Roundup
Issued by NWS

Home | Current Version | Previous Version | Graphics & Text | Print | Product List | Glossary On
Versions: 1 2 3 4 5 6 7 8 9 10 11 12 13 14 15 16 17 18 19 20 21 22 23 24 25 26 27 28 29 30 31 32 33 34 35 36 37 38 39 40 41 42 43 44 45 46 47 48 49 50
000
ASUS43 KMPX 240201
RWRMN
WEATHER ROUNDUP FOR MINNESOTA
NATIONAL WEATHER SERVICE TWIN CITIES/CHANHASSEN MN
900 PM CDT FRI JUN 23 2017


NOTE: "FAIR" INDICATES FEW OR NO CLOUDS BELOW 12,000 FEET WITH NO
SIGNIFICANT WEATHER AND/OR OBSTRUCTIONS TO VISIBILITY. N/A MEANS
CURRENT SKY AND/OR WEATHER CONDITIONS ARE NOT AVAILABLE.

MNZ060>063-068>070-240300-
   Twin Cities Metro

CITY           SKY/WX    TMP DP  RH WIND       PRES   REMARKS
TWIN CITIES    MOCLDY    66  50  56 NW20G28   29.88R
ST PAUL        CLOUDY    66  51  58 NW13G25   29.88R
CRYSTAL        MOCLDY    65  46  50 NW17G31   29.87R
BLAINE         MOCLDY    66  50  55 NW13G21   29.88R
LAKEVILLE      CLOUDY    64  52  63 W14G20    29.89R
EDEN PRAIRIE   CLOUDY    67  50  54 NW21G26   29.89R
SOUTH ST PAUL  PTCLDY    66  50  55 W12G17    29.88R
LAKE ELMO      CLOUDY    64  52  63 NW8       29.88R
$$
MNZ001>005-007-008-013>017-022>024-027-028-240300-
   Northwest Minnesota

CITY           SKY/WX    TMP DP  RH WIND       PRES   REMARKS
BEMIDJI        PTCLDY    55  46  72 NW7       29.91R
HALLOCK        CLOUDY    57  43  58 NW12G18   29.93S
ROSEAU           N/A     55  48  76 NW8       29.91R
WARROAD        CLOUDY    55  48  76 NW13      29.90R
CROOKSTON      MOCLDY    57  43  58 NW14G23     N/A
FOSSTON        MOCLDY    55  43  62 NW12G20   29.94R
DETROIT LAKES  CLOUDY    59  41  51 NW14      29.95R
MOORHEAD       MOCLDY    61  39  44 NW16G23   29.97R
PARK RAPIDS    PTCLDY    59  44  57 NW10      29.91R
MAHNOMEN       MOCLDY    58  41  54 NW12G23   29.94R
$$
MNZ006-009>011-018-025>026-240300-
   North Central Minnesota

CITY           SKY/WX    TMP DP  RH WIND       PRES   REMARKS
BAUDETTE       CLOUDY    55  49  80 W14       29.87R
FLAG ISLAND    CLOUDY    55  50  82 W16       29.85S
INTL FALLS     LGT RAIN  55  51  86 W14G21    29.84R FOG
WASKISH        CLOUDY    55  48  76 NW10G16   29.90R
BIG FORK       CLOUDY    55  48  76 W7        29.88R
LONGVILLE      CLOUDY    57  48  72 NW10G16   29.90R
GRAND RAPIDS   CLOUDY    57  48  72 NW15G22   29.89R
CRANE LAKE     CLOUDY    55  54  94 W3        29.82R
ORR            CLOUDY    55  50  82 W10G16    29.81R
COOK           CLOUDY    57  52  82 W12G23    29.83R
WALKER         FAIR      55  46  73 NW7       29.91R
$$
MNZ012-019>021-037-240300-
   Northeast Minnesota

CITY           SKY/WX    TMP DP  RH WIND       PRES   REMARKS
DULUTH         MOCLDY    58  52  80 NW14      29.82R
ELY            LGT RAIN  55  52  88 W9G17     29.80R
HIBBING        CLOUDY    56  51  84 NW13G21   29.84R
EVELETH        CLOUDY    58  49  73 W9G16     29.84R
DULUTH HARBOR  CLOUDY    64  55  72 NW20      29.80R
TWO HARBORS    MOCLDY    63  54  72 NW8       29.77S
SILVER BAY     MOCLDY    61  54  77 NW6       29.76R
GRAND MARAIS     N/A     60  55  83 NW5       29.72R
G MARAIS ARPRT MOCLDY    55  46  71 CALM      29.76R
$$
MNZ029>031-032-039>041-046>048-054>057-064-240300-
   West Central Minnesota

CITY           SKY/WX    TMP DP  RH WIND       PRES   REMARKS
FERGUS FALLS   MOCLDY    61  43  51 NW10      29.94R
WHEATON        MOCLDY    63  39  42 NW9       29.99R
MORRIS         PTCLDY    63  43  48 NW10      29.95S
ALEXANDRIA     CLEAR     58  47  66 NW7       29.95S
ELBOW LAKE     CLOUDY    61  42  49 W14G23    29.96S
WADENA         CLEAR     57  45  62 NW5       29.92S
GLENWOOD       CLEAR     59  45  58 NW10      29.95S
APPLETON       PTCLDY    64  39  39 NW12      29.96S
BENSON         MOCLDY    59  46  63 N5        29.98R
ORTONVILLE     PTCLDY    64  39  39 NW10G21   29.98S
MADISON        CLEAR     64  45  48 NW9       29.99R
WILLMAR        FAIR      61  48  63 NW8       29.97R
$$
MNZ033>034-036-042>043-049>051-058-059-240300-
   Central Minnesota

CITY           SKY/WX    TMP DP  RH WIND       PRES   REMARKS
ST CLOUD       CLOUDY    62  49  62 NW14G24   29.91R
SAUK CENTRE    FAIR      60  45  57 NW9G17    29.94S
PAYNESVILLE    MOCLDY    61  45  55 NW8       29.94S
AITKIN         CLOUDY    57  48  72 W7        29.87S
PINE RIVER     PTCLDY    57  48  72 NW6       29.94R
BRAINERD       CLOUDY    60  47  61 NW9       29.90R
STAPLES        PTCLDY    57  45  62 NW9       29.92R
LONG PRAIRIE   FAIR      59  45  58 W6        29.94R
LITTLE FALLS   CLOUDY    61  43  51 W8        29.91S
LITCHFIELD     CLOUDY    64  50  59 NW14G24   29.94R
BUFFALO        CLOUDY    64  49  57 W13G18    29.92R
MAPLE LAKE     MOCLDY    64  51  63 NW12G22   29.92R
HUTCHINSON     PTCLDY    63  51  65 NW9       29.95R
$$
MNZ037-044-045-052-053-240300-
   East Central Minnesota

CITY           SKY/WX    TMP DP  RH WIND       PRES   REMARKS
PRINCETON      CLEAR     63  48  59 NW12G18   29.90R
MORA           CLOUDY    61  46  59 NW13      29.88R
CAMBRIDGE      PTCLDY    64  50  59 NW13      29.87R
RUSH CITY      CLOUDY    59  55  88 NW5       29.87R
MOOSE LAKE     CLOUDY    61  50  67 NW12G22   29.84R
HINCKLEY       MOCLDY    59  55  88 W7        29.86R
CLOQUET        HVY RAIN  57  52  82 NW12G22   29.84R
MCGREGOR       CLOUDY    59  48  67 NW9G17    29.88R
$$
MNZ071>073-080-081-089-090-097-098-240300-
   Southwest Minnesota

CITY           SKY/WX    TMP DP  RH WIND       PRES   REMARKS
MONTEVIDEO     MOCLDY    63  46  55 N7        29.97S
GRANITE FALLS  PTCLDY    63  49  61 W7        29.99R
CANBY          PTCLDY    61  42  49 NW10      30.01R
MARSHALL       PTCLDY    60  47  61 NW10      29.99R
REDWOOD FALLS  PTCLDY    62  46  55 NW10      29.96R
OLIVIA         CLEAR     61  46  59 NW8       29.96R
PIPESTONE      PTCLDY    63  43  48 NW9G16    30.02R
WINDOM         CLEAR     61  46  59 W13       29.99R
WORTHINGTON    CLEAR     59  46  62 NW10      30.02R
JACKSON        MOCLDY    61  46  59 NW10G21   30.00R
TRACY          CLEAR     62  49  62 NW7       29.99S
SLAYTON        PTCLDY    60  45  56 NW10      30.01S
$$
MNZ065>067-074>077-082>085-091>093-240300-
   South Central Minnesota

CITY           SKY/WX    TMP DP  RH WIND       PRES   REMARKS
MANKATO        PTCLDY    63  49  60 NW14      29.93R
NEW ULM        CLEAR     61  48  63 NW10G17   29.95R
ST JAMES       MOCLDY    63  48  59 W13       29.97R
FAIRMONT       PTCLDY    62  49  62 NW13      29.97R
GLENCOE        MOCLDY    64  55  72 NW12G18   29.92R
FARIBAULT      PTCLDY    63  52  67 W12G20    29.91R
OWATONNA       CLEAR     63  52  67 W12       29.92R
WASECA         CLEAR     63  50  63 NW13      29.94R
ALBERT LEA     CLEAR     64  50  59 NW8       29.93R
$$
MNZ078>079-086>088-094>096-240300-
   Southeast Minnesota

CITY           SKY/WX    TMP DP  RH WIND       PRES   REMARKS
ROCHESTER      CLEAR     62  54  74 W13       29.90R
RED WING       PTCLDY    63  54  72 NW3       29.86R
STANTON        CLOUDY    65  53  65 W9        29.88R
DODGE CENTER   PTCLDY    63  52  67 W10       29.91R
WINONA         LGT RAIN  61  54  77 W7        29.86R
AUSTIN         CLEAR     63  52  67 W12       29.91R
PRESTON        PTCLDY    61  53  74 NW10      29.90R
$$
ABBREVIATIONS USED IN REMARKS
   TC - TEMPERATURES IN CELSIUS
  WCI - WIND CHILL INDEX
   HX - HEAT INDEX
  VSB - VISIBILITY
$$



USA.gov is the U.S. government's official web portal to all federal, state and local government web resources and services.